Date String (YYYY-MM-DD hh:mm:ss) UTC,Instrument flags,absolute air pressure of the measurement (hPa),sample flow rate (lpm),inlet stack bypass flow (lpm),air temperature of the measurement (°C),ambient temperature measured by the external sensor (°C),aerosol sample conditioner tube jacket temperature (°C),OPC LED temperature (°C),internal box temperature (°C),relative humidity of the measurement (%),span deviation,mass concentration of particles derived from Lorenz-Mie calculation of OPC scattering (μg/m³),mass concentration of particles derived from Lorenz-Mie calculation of OPC scattering (μg/m³),mass concentration of particles derived from Lorenz-Mie calculation of OPC scattering (μg/m³)
DateTimeUTC,F1_M11,P_M11,Q1_M11,Q2_M11,T1_M11,T2_M11,T3_M11,T4_M11,T5_M11,U1_M11,ZSPAN_M11,X0_M11,X2_M11,X1_M11
2023-08-27 08:00:00,SystemResetWarning,0835.9,5.00,000.00,029.7,027.3,000.0,037.9,030.4,33.5,0000.3,0013.21,0007.87,0007.42
2023-08-27 08:01:00,SystemResetWarning,0835.9,5.00,000.00,029.7,027.3,000.0,038.0,030.5,33.5,0000.6,0013.19,0007.88,0007.44
2023-08-27 08:02:00,SystemResetWarning,0835.9,5.00,000.00,029.7,027.4,000.0,038.0,030.5,33.3,0000.5,0013.30,0007.92,0007.46
2023-08-27 08:03:00,SystemResetWarning,0835.9,5.00,000.00,029.7,027.5,000.0,038.0,030.5,33.1,-000.3,0012.93,0007.92,0007.47
2023-08-27 08:04:00,SystemResetWarning,0835.9,5.00,000.00,029.8,027.5,000.0,038.0,030.6,33.0,-000.6,0012.92,0007.92,0007.48
2023-08-27 08:05:00,SystemResetWarning,0835.8,5.00,000.00,029.7,027.6,000.0,038.1,030.6,33.0,-000.9,0013.00,0007.90,0007.47
2023-08-27 08:06:00,SystemResetWarning,0835.8,5.01,000.00,029.7,027.5,000.0,038.1,030.6,33.0,-000.5,0013.12,0007.91,0007.47
2023-08-27 08:07:00,SystemResetWarning,0835.8,4.98,000.00,029.7,026.0,000.0,037.9,030.5,32.9,-000.5,0012.50,0007.89,0007.47
2023-08-27 08:08:00,SystemResetWarning,0835.8,5.01,000.00,029.7,024.7,000.0,037.8,030.2,33.0,-000.5,0012.59,0007.90,0007.48
2023-08-27 08:09:00,SystemResetWarning,0835.7,5.01,000.00,029.5,024.5,000.0,037.8,030.0,33.3,-000.4,0011.70,0007.90,0007.50
2023-08-27 08:10:00,SystemResetWarning,0835.7,4.99,000.00,029.4,024.8,000.0,037.8,029.8,33.6,-000.2,0011.44,0007.90,0007.52
2023-08-27 08:11:00,SystemResetWarning,0835.6,4.99,000.00,029.3,025.2,000.0,037.8,029.9,33.8,0000.1,0011.48,0007.93,0007.53
2023-08-27 08:12:00,SystemResetWarning,0835.7,5.00,000.00,029.3,025.5,000.0,037.8,030.0,33.9,0000.1,0011.53,0007.93,0007.53
2023-08-27 08:13:00,SystemResetWarning,0835.6,5.01,000.00,029.2,025.9,000.0,037.8,030.1,34.1,-000.1,0011.59,0007.93,0007.53
2023-08-27 08:14:00,SystemResetWarning,0835.7,4.98,000.00,029.2,026.2,000.0,037.8,030.1,34.1,0000.3,0011.67,0007.95,0007.54
2023-08-27 08:15:00,SystemResetWarning,0835.6,5.00,000.00,029.2,026.4,000.0,037.8,030.2,34.1,0000.8,0011.72,0007.96,0007.52
2023-08-27 08:16:00,SystemResetWarning,0835.7,5.02,000.00,029.2,026.6,000.0,037.7,030.2,34.1,0001.4,0011.72,0007.97,0007.52
2023-08-27 08:17:00,SystemResetWarning,0835.7,5.00,000.00,029.2,026.8,000.0,037.7,030.2,34.1,0001.4,0011.51,0007.99,0007.53
2023-08-27 08:18:00,SystemResetWarning,0835.8,4.99,000.00,029.2,026.9,000.0,037.7,030.2,34.3,0001.3,0011.53,0007.99,0007.53
2023-08-27 08:19:00,SystemResetWarning,0835.8,4.99,000.00,029.2,027.1,000.0,037.7,030.3,34.4,0001.0,0011.40,0007.98,0007.53
2023-08-27 08:20:00,SystemResetWarning,0835.7,5.00,000.00,029.2,027.2,000.0,037.7,030.3,34.2,0001.0,0011.40,0007.98,0007.52
2023-08-27 08:21:00,SystemResetWarning,0835.6,5.00,000.00,029.2,027.2,000.0,037.7,030.3,34.1,0001.0,0011.46,0008.00,0007.51
2023-08-27 08:22:00,SystemResetWarning,0835.6,5.00,000.00,029.2,027.3,000.0,037.7,030.4,34.0,0000.9,0011.27,0008.00,0007.49
2023-08-27 08:23:00,SystemResetWarning,0835.6,5.01,000.00,029.2,027.4,000.0,037.7,030.4,33.9,0000.2,0011.23,0008.01,0007.48
2023-08-27 08:24:00,SystemResetWarning,0835.6,5.00,000.00,029.2,027.4,000.0,037.7,030.4,33.9,0000.1,0011.09,0007.96,0007.45
2023-08-27 08:25:00,SystemResetWarning,0835.8,5.00,000.00,029.2,027.5,000.0,037.7,030.4,34.0,0000.2,0011.22,0007.88,0007.41
2023-08-27 08:26:00,SystemResetWarning,0835.7,5.01,000.00,029.2,027.5,000.0,037.7,030.5,34.3,0000.0,0011.47,0007.85,0007.40
2023-08-27 08:27:00,SystemResetWarning,0835.7,5.00,000.00,029.2,027.5,000.0,037.7,030.5,34.4,-000.1,0011.67,0007.83,0007.37
2023-08-27 08:28:00,SystemResetWarning,0835.7,5.00,000.00,029.2,027.4,000.0,037.7,030.5,34.2,-000.1,0011.72,0007.78,0007.34
2023-08-27 08:29:00,SystemResetWarning,0835.6,4.99,000.00,029.2,025.8,000.0,037.6,030.2,34.1,0000.2,0011.67,0007.75,0007.32
2023-08-27 08:30:00,SystemResetWarning,0835.7,5.02,000.00,029.1,024.7,000.0,037.5,030.0,34.2,0000.8,0011.82,0007.78,0007.30
2023-08-27 08:31:00,SystemResetWarning,0835.6,5.01,000.00,029.0,024.5,000.0,037.4,029.7,34.5,0001.0,0011.82,0007.76,0007.27
2023-08-27 08:32:00,SystemResetWarning,0835.6,5.00,000.00,028.8,024.8,000.0,037.4,029.6,34.6,0000.6,0011.74,0007.72,0007.24
2023-08-27 08:33:00,SystemResetWarning,0835.6,4.99,000.00,028.8,025.2,000.0,037.4,029.7,34.6,0000.4,0011.71,0007.70,0007.23
2023-08-27 08:34:00,SystemResetWarning,0835.6,5.00,000.00,028.7,025.6,000.0,037.4,029.8,34.7,0000.9,0011.61,0007.65,0007.20
2023-08-27 08:35:00,SystemResetWarning,0835.6,5.00,000.00,028.7,025.9,000.0,037.4,029.9,34.7,0001.0,0011.56,0007.62,0007.17
2023-08-27 08:36:00,SystemResetWarning,0835.6,5.00,000.00,028.7,026.2,000.0,037.4,030.0,34.7,0000.8,0011.44,0007.60,0007.14
2023-08-27 08:37:00,SystemResetWarning,0835.6,4.99,000.00,028.7,026.4,000.0,037.4,030.0,34.7,0000.7,0010.88,0007.56,0007.09
2023-08-27 08:38:00,SystemResetWarning,0835.6,4.99,000.00,028.7,026.6,000.0,037.4,030.0,34.7,0000.3,0010.71,0007.49,0007.05
2023-08-27 08:39:00,SystemResetWarning,0835.6,4.99,000.00,028.7,026.7,000.0,037.4,030.1,34.6,-000.2,0010.49,0007.47,0007.00
2023-08-27 08:40:00,SystemResetWarning,0835.6,5.00,000.00,028.7,026.9,000.0,037.4,030.1,34.5,-000.4,0010.47,0007.40,0006.93
2023-08-27 08:41:00,SystemResetWarning,0835.6,5.00,000.00,028.7,027.0,000.0,037.4,030.1,34.5,-001.0,0010.24,0007.31,0006.87
2023-08-27 08:42:00,SystemResetWarning,0835.6,5.00,000.00,028.8,027.1,000.0,037.4,030.2,34.4,-001.5,0010.19,0007.24,0006.81
2023-08-27 08:43:00,SystemResetWarning,0835.5,5.00,000.00,028.8,027.2,000.0,037.4,030.2,34.4,-001.3,0010.00,0007.16,0006.76
2023-08-27 08:44:00,SystemResetWarning,0835.6,5.00,000.00,028.8,027.2,000.0,037.4,030.2,34.4,-001.1,0009.87,0007.09,0006.71
2023-08-27 08:45:00,SystemResetWarning,0835.6,5.00,000.00,028.8,027.3,000.0,037.4,030.3,34.4,-001.1,0009.80,0007.02,0006.66
2023-08-27 08:46:00,SystemResetWarning,0835.5,5.01,000.00,028.8,027.3,000.0,037.4,030.3,34.3,-001.1,0009.78,0006.98,0006.62
2023-08-27 08:47:00,SystemResetWarning,0835.5,5.01,000.00,028.8,027.4,000.0,037.4,030.3,34.2,-001.0,0010.54,0006.95,0006.61
2023-08-27 08:48:00,SystemResetWarning,0835.6,5.00,000.00,028.9,027.4,000.0,037.4,030.3,34.2,-001.2,0011.16,0006.94,0006.60
2023-08-27 08:49:00,SystemResetWarning,0835.5,5.00,000.00,028.9,027.5,000.0,037.4,030.3,34.1,-001.3,0011.10,0006.91,0006.59
2023-08-27 08:50:00,SystemResetWarning,0835.5,4.99,000.00,028.9,027.5,000.0,037.4,030.4,34.1,-001.4,0011.00,0006.90,0006.58
2023-08-27 08:51:00,SystemResetWarning,0835.5,5.00,000.00,028.9,027.5,000.0,037.5,030.4,34.1,-001.7,0010.93,0006.91,0006.60
2023-08-27 08:52:00,SystemResetWarning,0835.7,5.00,000.00,028.9,027.4,000.0,037.5,030.4,34.0,-001.9,0010.91,0006.91,0006.60
2023-08-27 08:53:00,SystemResetWarning,0835.6,5.00,000.00,028.9,025.7,000.0,037.3,030.2,34.0,-001.9,0010.79,0006.88,0006.58
2023-08-27 08:54:00,SystemResetWarning,0835.5,5.00,000.00,028.8,024.6,000.0,037.2,029.9,34.2,-002.0,0010.72,0006.86,0006.56
2023-08-27 08:55:00,SystemResetWarning,0835.5,5.00,000.00,028.7,024.4,000.0,037.1,029.6,34.5,-002.1,0010.66,0006.83,0006.55
2023-08-27 08:56:00,SystemResetWarning,0835.5,5.01,000.00,028.5,024.7,000.0,037.2,029.5,34.8,-002.2,0010.59,0006.81,0006.55
2023-08-27 08:57:00,SystemResetWarning,0835.5,5.01,000.00,028.5,025.1,000.0,037.2,029.6,34.9,-002.5,0010.54,0006.80,0006.54
2023-08-27 08:58:00,SystemResetWarning,0835.5,4.97,000.00,028.5,025.5,000.0,037.2,029.8,35.1,-002.5,0009.86,0006.79,0006.53
2023-08-27 08:59:00,SystemResetWarning,0835.5,5.03,000.00,028.6,025.8,000.0,037.2,029.9,34.8,-002.1,0009.12,0006.79,0006.53
